TimeCDT,TemperatureF,Dew PointF,Humidity,Sea Level PressureIn,VisibilityMPH,Wind Direction,Wind SpeedMPH,Gust SpeedMPH,PrecipitationIn,Events,Conditions,WindDirDegrees,DateUTC
12:08 AM,51.8,51.8,100,29.62,9.0,WNW,11.5,-,0.01,Rain,Light Rain,290,2013-04-15 05:08:00
12:15 AM,51.8,51.8,100,29.61,6.0,WNW,9.2,-,0.03,Rain,Rain,290,2013-04-15 05:15:00
12:31 AM,51.8,50.0,94,29.61,7.0,WNW,13.8,-,0.04,Rain,Rain,290,2013-04-15 05:31:00
12:53 AM,50.0,46.9,89,29.64,9.0,WNW,8.1,17.3,0.05,Rain,Light Rain,290,2013-04-15 05:53:00
1:53 AM,48.0,46.9,96,29.67,10.0,WSW,3.5,-,0.01,,Overcast,240,2013-04-15 06:53:00
2:53 AM,48.0,48.0,100,29.71,10.0,SW,4.6,-,N/A,,Overcast,230,2013-04-15 07:53:00
3:01 AM,48.2,48.2,100,29.70,10.0,SW,3.5,-,N/A,,Overcast,230,2013-04-15 08:01:00
3:25 AM,48.2,48.2,100,29.71,10.0,WSW,4.6,-,N/A,,Overcast,240,2013-04-15 08:25:00
3:34 AM,48.2,48.2,100,29.71,10.0,SW,3.5,-,N/A,,Mostly Cloudy,230,2013-04-15 08:34:00
3:53 AM,46.9,46.9,100,29.71,8.0,SW,3.5,-,N/A,,Mostly Cloudy,230,2013-04-15 08:53:00
4:14 AM,46.4,46.4,100,29.71,1.8,SSW,3.5,-,N/A,,Partly Cloudy,210,2013-04-15 09:14:00
4:26 AM,44.6,44.6,100,29.71,0.5,SW,3.5,-,N/A,Fog,Fog,220,2013-04-15 09:26:00
4:42 AM,44.6,44.6,100,29.71,1.2,South,5.8,-,N/A,,Partly Cloudy,180,2013-04-15 09:42:00
4:53 AM,43.0,43.0,100,29.72,1.0,Variable,4.6,-,N/A,,Mist,0,2013-04-15 09:53:00
5:00 AM,42.8,42.8,100,29.71,0.5,South,3.5,-,N/A,Fog,Fog,190,2013-04-15 10:00:00
5:10 AM,42.8,42.8,100,29.71,0.2,SSW,3.5,-,N/A,Fog,Fog,200,2013-04-15 10:10:00
5:18 AM,42.8,42.8,100,29.70,0.2,SSW,3.5,-,N/A,Fog,Fog,200,2013-04-15 10:18:00
5:48 AM,42.8,42.8,100,29.70,0.2,SSW,3.5,-,N/A,Fog,Fog,200,2013-04-15 10:48:00
5:53 AM,42.1,42.1,100,29.71,0.2,SSW,3.5,-,N/A,Fog,Fog,200,2013-04-15 10:53:00
6:53 AM,39.2,39.2,100,29.74,0.2,SSW,6.9,-,N/A,Fog,Fog,200,2013-04-15 11:53:00
7:07 AM,42.8,42.8,100,29.73,0.5,South,6.9,-,N/A,Fog,Fog,190,2013-04-15 12:07:00
7:10 AM,42.8,42.8,100,29.74,1.0,SSW,6.9,-,N/A,,Mostly Cloudy,200,2013-04-15 12:10:00
7:15 AM,42.8,42.8,100,29.73,1.8,South,6.9,-,N/A,,Scattered Clouds,190,2013-04-15 12:15:00
7:30 AM,44.6,44.6,100,29.74,3.0,SSW,5.8,-,N/A,,Clear,210,2013-04-15 12:30:00
7:35 AM,44.6,44.6,100,29.74,8.0,SSW,6.9,-,N/A,,Clear,200,2013-04-15 12:35:00
7:53 AM,45.0,45.0,100,29.75,10.0,SW,8.1,-,N/A,,Clear,220,2013-04-15 12:53:00
8:53 AM,50.0,43.0,77,29.76,10.0,SW,10.4,-,N/A,,Mostly Cloudy,220,2013-04-15 13:53:00
9:53 AM,53.1,39.9,61,29.75,10.0,SW,20.7,-,N/A,,Clear,220,2013-04-15 14:53:00
10:33 AM,51.8,44.6,76,29.77,10.0,West,16.1,-,N/A,,Partly Cloudy,270,2013-04-15 15:33:00
10:53 AM,50.0,42.1,74,29.79,10.0,West,17.3,-,N/A,,Scattered Clouds,270,2013-04-15 15:53:00
11:53 AM,48.9,39.9,71,29.82,10.0,West,15.0,-,N/A,,Overcast,260,2013-04-15 16:53:00
12:53 PM,48.0,37.9,68,29.87,10.0,West,20.7,26.5,N/A,,Overcast,270,2013-04-15 17:53:00
1:53 PM,45.0,34.0,65,29.86,10.0,West,13.8,24.2,N/A,,Overcast,270,2013-04-15 18:53:00
2:53 PM,43.0,37.0,80,29.92,10.0,WNW,17.3,-,0.00,Rain,Light Rain,290,2013-04-15 19:53:00
3:40 PM,39.2,37.4,93,29.90,6.0,West,11.5,-,0.02,Rain,Light Rain,280,2013-04-15 20:40:00
3:53 PM,39.9,37.0,89,29.91,7.0,West,8.1,-,0.04,Rain,Light Rain,280,2013-04-15 20:53:00
4:53 PM,41.0,37.0,86,29.91,10.0,West,9.2,-,0.02,,Overcast,280,2013-04-15 21:53:00
5:53 PM,41.0,36.0,82,29.92,10.0,West,9.2,-,N/A,,Overcast,280,2013-04-15 22:53:00
6:53 PM,41.0,36.0,82,29.93,10.0,West,6.9,-,N/A,,Overcast,280,2013-04-15 23:53:00
7:53 PM,39.9,37.0,89,29.94,10.0,WSW,9.2,-,N/A,,Overcast,250,2013-04-16 00:53:00
8:53 PM,41.0,37.0,86,29.96,10.0,West,6.9,-,N/A,,Overcast,260,2013-04-16 01:53:00
9:53 PM,39.9,36.0,86,29.99,10.0,West,6.9,-,N/A,,Overcast,260,2013-04-16 02:53:00
10:53 PM,39.9,37.0,89,30.01,10.0,West,6.9,-,N/A,,Overcast,260,2013-04-16 03:53:00
11:53 PM,39.0,35.1,86,30.02,10.0,WNW,9.2,-,N/A,,Mostly Cloudy,290,2013-04-16 04:53:00